Theta_e
327 328 328 329 330 329 328 329 329 330 331 332 334 333 334 335 334 335 331 330 329 329 330 328 330 332 333 332 330 331 331 332
326 327 328 329 329 327 326 327 328 329 330 331 332 333 333 335 333 332 331 329 329 332 330 331 331 331 332 332 328 331 331 332
325 326 327 328 328 326 326 327 327 329 329 330 332 333 334 333 332 332 331 330 331 332 331 331 332 332 330 333 333 333 329 330
325 326 327 327 326 324 325 326 326 328 328 329 331 331 331 332 332 333 332 333 331 333 331 330 332 329 307 313 323 334 332 332
325 326 328 328 326 325 324 326 326 328 328 329 329 330 330 331 331 330 330 334 336 333 331 332 332 329 306 306 311 334 335 334
326 328 329 328 327 325 326 325 325 326 327 328 329 329 330 330 331 332 333 336 334 333 333 333 332 326 306 305 310 335 336 334
328 330 331 329 326 325 325 323 325 325 326 327 328 330 330 331 330 333 336 337 336 335 334 333 332 328 304 303 316 334 332 333
329 330 331 328 326 326 325 323 323 324 326 328 329 330 330 330 332 334 335 336 334 334 333 334 322 330 304 301 315 333 332 331
332 331 330 328 327 326 324 323 322 325 326 329 330 332 331 334 334 334 334 333 333 335 333 334 333 330 323 302 304 334 333 332
331 330 330 328 327 325 324 323 324 325 325 328 330 332 331 333 335 333 332 333 332 334 333 332 331 332 314 304 303 309 316 332
331 330 330 328 327 326 324 325 324 325 325 328 330 332 331 334 333 330 328 330 330 331 330 329 328 330 328 304 306 305 311 333
331 331 329 326 327 326 326 326 324 324 324 327 329 329 330 332 330 329 326 326 328 328 327 327 328 329 329 329 329 326 309 321
331 330 329 327 327 326 326 326 324 324 326 326 328 328 330 330 331 328 326 331 322 326 328 329 329 328 329 321 323 329 331 323
330 331 331 328 327 326 326 326 325 325 327 325 325 326 328 329 329 329 298 303 304 304 302 315 327 310 305 304 304 302 302 305
329 330 331 330 327 325 326 326 325 325 330 329 324 321 326 329 328 328 326 317 302 305 303 301 303 310 301 300 298 297 299 305
330 330 331 331 328 326 328 327 325 326 332 309 326 323 323 324 328 329 329 327 325 325 305 308 299 298 299 298 296 303 320 313
327 331 331 331 329 328 330 329 328 326 327 325 325 324 322 319 323 325 327 327 327 325 324 307 300 293 293 294 296 324 322 321
321 326 332 330 331 331 330 330 332 328 329 314 317 324 322 321 321 322 322 323 323 323 322 323 321 311 316 316 319 323 323 322
321 324 333 334 331 333 332 331 336 328 327 327 315 323 322 321 321 321 322 321 322 322 323 322 309 322 323 322 321 321 321 322
320 326 337 336 334 333 333 333 336 332 330 328 326 323 322 321 323 321 322 321 321 321 323 320 298 325 323 324 326 325 324 326
Wind_Speed
19 18 18 17 16 15 14 12 13 12 10 10 8 6 5 4 5 6 7 7 6 6 5 4 6 5 5 7 6 3 0 3
18 17 16 16 16 15 14 13 12 11 10 9 8 5 6 7 7 7 7 7 7 4 4 4 6 6 4 7 6 4 3 2
18 17 16 16 15 14 13 12 12 11 9 9 8 6 7 8 7 7 7 7 3 3 4 5 6 5 6 5 6 8 7 5
18 18 18 17 16 14 13 13 12 11 10 10 9 9 9 8 7 6 4 5 6 4 3 6 5 7 9 11 8 6 7 6
16 17 17 16 15 14 13 12 12 11 11 11 11 10 10 9 8 8 8 7 4 7 7 5 8 8 8 9 9 5 8 8
15 14 15 15 16 15 13 13 13 12 12 12 12 12 11 9 6 7 6 5 4 3 4 9 6 7 4 5 8 7 6 8
13 14 15 14 15 16 14 14 13 12 13 12 12 12 10 11 8 7 7 7 6 6 5 8 8 8 3 2 7 8 5 9
13 16 16 15 15 16 15 15 14 13 13 12 12 12 11 9 8 7 7 7 7 7 6 6 10 9 4 2 5 6 9 7
13 16 15 15 15 15 15 15 14 13 13 13 12 11 11 11 8 6 6 6 7 7 8 7 9 10 7 3 7 7 7 8
15 15 15 15 16 15 15 15 14 14 13 14 12 12 10 10 9 7 7 6 7 6 9 8 8 8 7 5 7 6 4 8
14 15 16 16 16 16 15 15 15 15 14 13 13 12 9 11 9 8 7 7 7 8 8 7 8 8 7 6 4 9 9 2
13 16 17 17 16 16 15 15 15 15 15 14 13 12 10 11 9 8 7 7 6 9 9 6 7 8 9 8 7 7 10 10
11 14 15 17 17 17 16 16 16 15 14 14 13 12 11 11 9 7 7 7 5 5 6 10 10 9 9 10 11 9 8 9
9 13 16 17 18 18 18 17 17 15 13 13 12 11 12 11 10 8 11 8 10 10 12 5 7 8 18 13 9 10 13 14
7 11 14 16 18 18 18 18 18 17 13 13 12 12 12 11 11 10 10 4 9 9 11 11 6 14 16 15 12 10 8 10
10 11 14 16 18 19 19 19 19 18 16 14 12 13 12 12 12 11 10 12 10 9 2 5 9 11 14 14 13 11 6 5
14 9 14 16 18 19 20 20 19 19 16 14 14 13 12 13 12 12 11 12 13 12 12 5 9 10 8 7 12 10 10 10
11 12 11 14 16 18 20 20 18 16 15 16 15 13 12 12 12 12 12 12 12 12 13 14 11 9 9 9 10 12 12 12
12 12 13 13 14 15 19 20 18 15 14 15 14 14 13 13 13 13 12 12 12 12 12 14 18 15 14 14 14 14 14 13
12 13 10 7 9 14 14 18 18 16 14 14 16 15 14 14 13 13 13 13 13 13 12 10 19 15 14 14 15 14 14 14
Wind_Direction
148 151 154 151 152 155 153 157 158 166 168 153 144 135 155 157 175 142 171 163 197 214 189 190 73 62 81 90 59 142 230 196
154 159 157 154 158 155 154 163 160 158 163 161 141 150 144 150 148 154 167 179 180 206 168 104 114 107 84 108 121 122 47 59
163 164 160 156 158 155 158 159 157 158 157 138 131 131 139 141 150 162 163 170 152 141 140 134 84 114 69 51 96 108 110 56
168 165 160 161 157 159 159 158 152 161 156 133 143 144 140 139 146 134 145 159 158 134 122 114 183 85 38 29 20 107 117 115
172 168 163 160 160 160 162 158 158 161 156 145 140 142 137 149 161 155 148 143 155 159 159 116 101 101 43 17 358 85 108 117
173 168 163 163 158 157 162 158 166 166 154 152 149 154 148 148 145 143 123 117 119 125 132 122 133 105 74 5 330 94 98 112
173 166 162 165 164 156 164 162 169 170 158 155 165 144 145 147 157 145 148 150 155 156 171 152 150 128 124 331 319 103 103 102
171 164 160 168 169 162 168 165 173 174 163 164 167 152 146 139 138 150 160 163 160 141 149 162 126 123 149 331 327 100 114 108
169 163 165 170 169 170 176 169 177 175 164 164 162 149 156 131 139 148 164 195 104 110 126 136 126 127 127 38 4 130 128 135
173 168 166 171 172 177 183 175 177 173 167 166 165 152 178 145 148 153 167 122 139 138 129 143 122 125 117 81 46 59 11 138
178 172 168 174 177 181 185 179 180 173 169 168 165 165 189 146 161 165 156 181 151 164 146 141 136 134 128 90 83 52 52 117
181 175 173 177 180 184 189 180 186 175 171 170 169 174 184 159 174 178 173 181 178 166 152 140 152 154 143 151 147 131 119 107
189 186 180 179 181 184 189 182 188 178 174 175 176 183 188 169 196 178 193 183 179 186 157 154 160 165 154 151 158 158 156 146
212 199 190 183 183 186 187 185 188 181 179 181 183 185 182 182 191 161 51 43 88 55 61 61 128 116 132 145 115 109 116 149
250 221 210 191 184 190 190 187 186 185 188 183 185 202 179 195 191 188 176 91 64 60 63 66 43 141 138 134 123 113 137 161
331 276 211 205 193 191 192 192 187 188 185 186 199 200 189 200 194 196 189 177 185 188 221 93 115 142 145 139 138 145 163 215
334 292 276 212 204 195 193 195 189 191 185 197 201 187 208 195 197 201 200 191 186 191 178 141 102 85 84 122 165 197 197 204
341 328 307 264 223 206 196 198 193 190 193 207 190 204 200 196 206 201 203 205 191 193 186 182 165 156 175 184 199 219 218 209
326 315 295 278 264 233 200 201 192 197 196 196 201 214 197 199 205 203 205 203 201 198 199 184 164 191 196 197 198 209 222 230
317 309 336 305 270 329 249 204 197 201 199 200 191 210 210 202 199 207 205 208 205 205 202 181 157 189 205 207 206 205 214 222